Location: Hohe Wand Kleine Kanzel
(47.8330°N, 16.0170°E)
Time: 10:25:01
(UTC+02:00)

Courier 1B - Visible Passes

Search period start: 24 July 2021 00:00
Search period end: 03 August 2021 00:00
Orbit: 962 x 1209 km, 28.3° (Epoch: 23 July)

Date Brightness Start Highest point End Pass type
(mag) Time Alt. Az. Time Alt. Az. Time Alt. Az.
26 Jul 9.4 22:24:32 10° SSW 22:26:27 12° S 22:26:27 12° S visible
27 Jul 9.4 21:31:53 10° S 21:33:57 11° SSE 21:35:59 10° SSE visible
27 Jul 9.6 23:22:45 10° SSW 23:23:18 11° SSW 23:23:18 11° SSW visible
28 Jul 9.3 22:29:12 10° SSW 22:33:04 15° S 22:33:04 15° S visible
29 Jul 9.3 21:35:50 10° SSW 21:39:39 15° S 21:42:44 11° SE visible
29 Jul 9.6 23:28:29 10° SW 23:29:38 12° SSW 23:29:38 12° SSW visible
30 Jul 9.2 22:34:38 10° SW 22:38:56 16° S 22:39:10 16° S visible
31 Jul 9.3 21:40:57 10° SSW 21:45:23 16° S 21:48:38 12° SSE visible
31 Jul 9.7 23:34:50 10° SW 23:35:31 11° SW 23:35:31 11° SW visible
01 Aug 9.4 22:40:36 10° SW 22:44:39 15° S 22:44:56 15° S visible
02 Aug 9.4 21:46:38 10° SW 21:51:06 16° S 21:54:18 13° SSE visible
